Location: M?digepalle
(16.1753°N, 80.3496°E)
Time: 08:13:58
(UTC+00:00)

Meteor 2-5 Rocket - Pass Details

Date: 29 October 2020
Orbit: 833 x 911 km, 81.2° (Epoch: 27 November)

Event Time Altitude Azimuth Distance (km) Brightness Sun altitude
Rises 22:52:20 0° 195° (SSW) 3,391 6.8 -25.0°
Reaches altitude 10° 22:54:46 10° 200° (SSW) 2,466 6.0 -24.5°
Maximum altitude 23:00:13 55° 277° (W) 1,030 3.7 -23.2°
Drops below altitude 10° 23:05:48 10° 354° (N) 2,520 6.0 -21.8°
Sets 23:08:20 0° 359° (N) 3,471 6.8 -21.2°
